Time,TemperatureF,DewpointF,PressureIn,WindDirection,WindDirectionDegrees,WindSpeedMPH,WindSpeedGustMPH,Humidity,HourlyPrecipIn,Conditions,Clouds,dailyrainin,SoftwareType,DateUTC
2013-07-03 00:00:00,68.9,57.1,30.00,SSE,161,0.0,0.0,66,0.00,,CLR,0.00,VWS V14.01,2013-07-03 05:00:00,
2013-07-03 00:03:00,68.1,55.9,30.01,SSE,161,0.0,0.0,65,0.00,,CLR,0.00,VWS V14.01,2013-07-03 05:03:00,
2013-07-03 00:07:00,68.1,56.7,30.01,SSE,161,0.0,0.0,67,0.00,,CLR,0.00,VWS V14.01,2013-07-03 05:07:00,
2013-07-03 00:10:00,68.3,54.3,30.00,SSE,161,0.0,0.0,61,0.00,,CLR,0.00,VWS V14.01,2013-07-03 05:10:00,
2013-07-03 00:12:00,68.1,56.3,30.01,SSE,161,0.0,0.0,66,0.00,,CLR,0.00,VWS V14.01,2013-07-03 05:12:00,
2013-07-03 00:17:00,67.9,55.3,30.01,SSE,161,0.0,0.0,64,0.00,,CLR,0.00,VWS V14.01,2013-07-03 05:17:00,
2013-07-03 00:19:00,67.9,55.3,30.01,SSE,161,0.0,0.0,64,0.00,,CLR,0.00,VWS V14.01,2013-07-03 05:19:00,
2013-07-03 00:20:00,68.1,56.7,30.01,SSE,161,0.0,0.0,67,0.00,,CLR,0.00,VWS V14.01,2013-07-03 05:20:00,
2013-07-03 00:24:00,67.8,55.2,30.01,SSE,161,0.0,0.0,64,0.00,,CLR,0.00,VWS V14.01,2013-07-03 05:24:00,
2013-07-03 00:29:00,67.6,54.6,30.01,SSE,161,0.0,0.0,63,0.00,,CLR,0.00,VWS V14.01,2013-07-03 05:29:00,
2013-07-03 00:30:00,67.9,55.3,30.01,SSE,161,0.0,0.0,64,0.00,,CLR,0.00,VWS V14.01,2013-07-03 05:30:00,
2013-07-03 00:35:00,67.4,54.8,30.01,SSE,161,0.0,0.0,64,0.00,,CLR,0.00,VWS V14.01,2013-07-03 05:35:00,
2013-07-03 00:40:00,67.4,55.2,30.01,SSE,161,0.0,0.0,65,0.00,,CLR,0.00,VWS V14.01,2013-07-03 05:40:00,
2013-07-03 00:46:00,67.3,55.6,30.01,SSE,161,0.0,0.0,66,0.00,,CLR,0.00,VWS V14.01,2013-07-03 05:46:00,
2013-07-03 00:50:00,67.4,55.2,30.01,SSE,161,0.0,0.0,65,0.00,,CLR,0.00,VWS V14.01,2013-07-03 05:50:00,
2013-07-03 00:51:00,67.3,55.2,30.01,SSE,161,0.0,0.0,65,0.00,,CLR,0.00,VWS V14.01,2013-07-03 05:51:00,
2013-07-03 00:54:00,67.3,56.4,30.01,SSE,161,0.0,0.0,68,0.00,,CLR,0.00,VWS V14.01,2013-07-03 05:54:00,
2013-07-03 00:58:00,67.3,56.0,30.01,SSE,161,0.0,0.0,67,0.00,,CLR,0.00,VWS V14.01,2013-07-03 05:58:00,
2013-07-03 00:59:00,67.3,56.0,30.01,SSE,161,0.0,0.0,67,0.00,,CLR,0.00,VWS V14.01,2013-07-03 05:59:00,
2013-07-03 01:00:00,67.3,55.6,30.01,SSE,161,0.0,0.0,66,0.00,,CLR,0.00,VWS V14.01,2013-07-03 06:00:00,
2013-07-03 01:02:00,67.3,55.6,30.01,SSE,161,0.0,0.0,66,0.00,,CLR,0.00,VWS V14.01,2013-07-03 06:02:00,
2013-07-03 01:07:00,67.1,55.4,30.01,SSE,161,0.0,0.0,66,0.00,,CLR,0.00,VWS V14.01,2013-07-03 06:07:00,
2013-07-03 01:10:00,67.3,56.0,30.01,SSE,161,0.0,0.0,67,0.00,,CLR,0.00,VWS V14.01,2013-07-03 06:10:00,
2013-07-03 01:12:00,67.1,55.8,30.01,SSE,161,0.0,0.0,67,0.00,,CLR,0.00,VWS V14.01,2013-07-03 06:12:00,
2013-07-03 01:13:00,67.1,55.8,30.01,SSE,161,0.0,0.0,67,0.00,,CLR,0.00,VWS V14.01,2013-07-03 06:13:00,
2013-07-03 01:16:00,67.1,55.4,30.01,SSE,161,0.0,0.0,66,0.00,,CLR,0.00,VWS V14.01,2013-07-03 06:16:00,
2013-07-03 01:17:00,67.1,55.0,30.01,SSE,161,0.0,0.0,65,0.00,,CLR,0.00,VWS V14.01,2013-07-03 06:17:00,
2013-07-03 01:20:00,67.1,55.4,30.01,SSE,161,0.0,0.0,66,0.00,,CLR,0.00,VWS V14.01,2013-07-03 06:20:00,
2013-07-03 01:22:00,67.1,54.5,30.01,SSE,161,0.0,0.0,64,0.00,,CLR,0.00,VWS V14.01,2013-07-03 06:22:00,
2013-07-03 01:24:00,67.1,54.1,30.01,SSE,161,0.0,0.0,63,0.00,,CLR,0.00,VWS V14.01,2013-07-03 06:24:00,
2013-07-03 01:26:00,67.1,54.1,30.01,SSE,161,0.0,0.0,63,0.00,,CLR,0.00,VWS V14.01,2013-07-03 06:26:00,
2013-07-03 01:30:00,67.1,55.0,30.01,SSE,161,0.0,0.0,65,0.00,,CLR,0.00,VWS V14.01,2013-07-03 06:30:00,
2013-07-03 01:31:00,67.1,53.2,30.01,SSE,161,0.0,0.0,61,0.00,,CLR,0.00,VWS V14.01,2013-07-03 06:31:00,
2013-07-03 01:32:00,67.1,53.7,30.01,SSE,161,0.0,0.0,62,0.00,,CLR,0.00,VWS V14.01,2013-07-03 06:32:00,
2013-07-03 01:37:00,67.1,53.2,30.01,SSE,161,0.0,0.0,61,0.00,,CLR,0.00,VWS V14.01,2013-07-03 06:37:00,
2013-07-03 01:40:00,67.1,54.1,30.01,SSE,161,0.0,0.0,63,0.00,,CLR,0.00,VWS V14.01,2013-07-03 06:40:00,
2013-07-03 01:42:00,67.3,53.8,30.01,SSE,161,0.0,0.0,62,0.00,,CLR,0.00,VWS V14.01,2013-07-03 06:42:00,
2013-07-03 01:43:00,67.3,54.3,30.01,SSE,161,0.0,0.0,63,0.00,,CLR,0.00,VWS V14.01,2013-07-03 06:43:00,
2013-07-03 01:49:00,67.1,53.2,30.01,SSE,161,0.0,0.0,61,0.00,,CLR,0.00,VWS V14.01,2013-07-03 06:49:00,
2013-07-03 01:50:00,67.1,53.2,30.01,SSE,161,0.0,0.0,61,0.00,,CLR,0.00,VWS V14.01,2013-07-03 06:50:00,
2013-07-03 01:54:00,67.1,53.2,30.01,SSE,161,0.0,0.0,61,0.00,,CLR,0.00,VWS V14.01,2013-07-03 06:54:00,
2013-07-03 01:55:00,67.1,53.7,30.01,SSE,161,0.0,0.0,62,0.00,,CLR,0.00,VWS V14.01,2013-07-03 06:55:00,
2013-07-03 02:00:00,66.9,52.6,30.01,SSE,161,0.0,0.0,60,0.00,,CLR,0.00,VWS V14.01,2013-07-03 07:00:00,
2013-07-03 02:05:00,66.9,52.1,30.01,SSE,161,0.0,0.0,59,0.00,,CLR,0.00,VWS V14.01,2013-07-03 07:05:00,
2013-07-03 02:10:00,66.9,52.6,30.01,SSE,161,0.0,0.0,60,0.00,,CLR,0.00,VWS V14.01,2013-07-03 07:10:00,
2013-07-03 02:16:00,66.9,51.2,30.01,SSE,161,0.0,0.0,57,0.00,,CLR,0.00,VWS V14.01,2013-07-03 07:16:00,
2013-07-03 02:20:00,66.9,52.6,30.01,SSE,161,0.0,0.0,60,0.00,,CLR,0.00,VWS V14.01,2013-07-03 07:20:00,
2013-07-03 02:21:00,66.9,52.6,30.01,SSE,161,0.0,0.0,60,0.00,,CLR,0.00,VWS V14.01,2013-07-03 07:21:00,
2013-07-03 02:26:00,66.9,51.7,30.01,SSE,161,0.0,0.0,58,0.00,,CLR,0.00,VWS V14.01,2013-07-03 07:26:00,
2013-07-03 02:30:00,66.9,51.7,30.01,SSE,161,0.0,0.0,58,0.00,,CLR,0.00,VWS V14.01,2013-07-03 07:30:00,
2013-07-03 02:31:00,67.1,50.9,30.02,SSE,161,0.0,0.0,56,0.00,,CLR,0.00,VWS V14.01,2013-07-03 07:31:00,
2013-07-03 02:37:00,67.1,50.4,30.02,SSE,161,0.0,0.0,55,0.00,,CLR,0.00,VWS V14.01,2013-07-03 07:37:00,
2013-07-03 02:38:00,67.1,50.9,30.02,SSE,161,0.0,0.0,56,0.00,,CLR,0.00,VWS V14.01,2013-07-03 07:38:00,
2013-07-03 02:40:00,67.1,51.8,30.01,SSE,161,0.0,0.0,58,0.00,,CLR,0.00,VWS V14.01,2013-07-03 07:40:00,
2013-07-03 02:43:00,66.9,51.7,30.02,SSE,161,0.0,0.0,58,0.00,,CLR,0.00,VWS V14.01,2013-07-03 07:43:00,
2013-07-03 02:48:00,66.9,51.2,30.01,SSE,161,0.0,0.0,57,0.00,,CLR,0.00,VWS V14.01,2013-07-03 07:48:00,
2013-07-03 02:50:00,66.8,51.6,30.01,SSE,161,0.0,0.0,58,0.00,,CLR,0.00,VWS V14.01,2013-07-03 07:50:00,
2013-07-03 02:55:00,66.8,51.6,30.01,SSE,161,0.0,0.0,58,0.00,,CLR,0.00,VWS V14.01,2013-07-03 07:55:00,
2013-07-03 03:00:00,66.4,52.6,30.01,SSE,161,0.0,0.0,61,0.00,,CLR,0.00,VWS V14.01,2013-07-03 08:00:00,
2013-07-03 03:03:00,66.3,52.0,30.01,SSE,161,0.0,0.0,60,0.00,,CLR,0.00,VWS V14.01,2013-07-03 08:03:00,
2013-07-03 03:06:00,66.1,51.8,30.01,SSE,161,0.0,0.0,60,0.00,,CLR,0.00,VWS V14.01,2013-07-03 08:06:00,
2013-07-03 03:09:00,66.1,52.3,30.01,SSE,161,0.0,0.0,61,0.00,,CLR,0.00,VWS V14.01,2013-07-03 08:09:00,
2013-07-03 03:10:00,66.6,50.9,30.01,SSE,161,0.0,0.0,57,0.00,,CLR,0.00,VWS V14.01,2013-07-03 08:10:00,
2013-07-03 03:14:00,65.8,52.0,30.01,SSE,161,0.0,0.0,61,0.00,,CLR,0.00,VWS V14.01,2013-07-03 08:14:00,
2013-07-03 03:18:00,65.8,52.0,30.01,SSE,161,0.0,0.0,61,0.00,,CLR,0.00,VWS V14.01,2013-07-03 08:18:00,
2013-07-03 03:20:00,66.1,52.3,30.01,SSE,161,0.0,0.0,61,0.00,,CLR,0.00,VWS V14.01,2013-07-03 08:20:00,
2013-07-03 03:23:00,65.6,52.2,30.01,SSE,161,0.0,0.0,62,0.00,,CLR,0.00,VWS V14.01,2013-07-03 08:23:00,
2013-07-03 03:28:00,65.6,52.2,30.01,SSE,161,0.0,0.0,62,0.00,,CLR,0.00,VWS V14.01,2013-07-03 08:28:00,
2013-07-03 03:30:00,65.8,51.5,30.01,SSE,161,0.0,0.0,60,0.00,,CLR,0.00,VWS V14.01,2013-07-03 08:30:00,
2013-07-03 03:33:00,65.5,51.7,30.00,SSE,161,0.0,0.0,61,0.00,,CLR,0.00,VWS V14.01,2013-07-03 08:33:00,
2013-07-03 03:38:00,65.5,51.3,30.00,SSE,161,0.0,0.0,60,0.00,,CLR,0.00,VWS V14.01,2013-07-03 08:38:00,
2013-07-03 03:39:00,65.5,51.3,30.00,SSE,161,0.0,0.0,60,0.00,,CLR,0.00,VWS V14.01,2013-07-03 08:39:00,
2013-07-03 03:40:00,65.6,52.2,30.01,SSE,161,0.0,0.0,62,0.00,,CLR,0.00,VWS V14.01,2013-07-03 08:40:00,
2013-07-03 03:44:00,65.5,53.0,30.00,SSE,161,0.0,0.0,64,0.00,,CLR,0.00,VWS V14.01,2013-07-03 08:44:00,
2013-07-03 03:46:00,65.5,52.6,30.00,SSE,161,0.0,0.0,63,0.00,,CLR,0.00,VWS V14.01,2013-07-03 08:46:00,
2013-07-03 03:50:00,65.5,51.3,30.00,SSE,161,0.0,0.0,60,0.00,,CLR,0.00,VWS V14.01,2013-07-03 08:50:00,
2013-07-03 03:51:00,65.5,52.2,30.00,SSE,161,0.0,0.0,62,0.00,,CLR,0.00,VWS V14.01,2013-07-03 08:51:00,
2013-07-03 03:54:00,65.5,52.2,30.00,SSE,161,0.0,0.0,62,0.00,,CLR,0.00,VWS V14.01,2013-07-03 08:54:00,
2013-07-03 03:55:00,65.5,52.2,30.00,SSE,161,0.0,0.0,62,0.00,,CLR,0.00,VWS V14.01,2013-07-03 08:55:00,
2013-07-03 04:00:00,65.3,52.4,30.00,SSE,161,0.0,0.0,63,0.00,,CLR,0.00,VWS V14.01,2013-07-03 09:00:00,
2013-07-03 04:05:00,65.3,51.5,30.00,SSE,161,0.0,0.0,61,0.00,,CLR,0.00,VWS V14.01,2013-07-03 09:05:00,
2013-07-03 04:10:00,65.3,51.5,30.00,SSE,161,0.0,0.0,61,0.00,,CLR,0.00,VWS V14.01,2013-07-03 09:10:00,
2013-07-03 04:16:00,65.5,51.7,30.00,SSE,161,0.0,0.0,61,0.00,,CLR,0.00,VWS V14.01,2013-07-03 09:16:00,
2013-07-03 04:20:00,65.3,51.5,30.00,SSE,161,0.0,0.0,61,0.00,,CLR,0.00,VWS V14.01,2013-07-03 09:20:00,
2013-07-03 04:21:00,65.6,51.8,30.00,SSE,161,0.0,0.0,61,0.00,,CLR,0.00,VWS V14.01,2013-07-03 09:21:00,
2013-07-03 04:26:00,65.8,51.5,30.00,SSE,161,0.0,0.0,60,0.00,,CLR,0.00,VWS V14.01,2013-07-03 09:26:00,
2013-07-03 04:30:00,65.6,51.8,30.00,SSE,161,0.0,0.0,61,0.00,,CLR,0.00,VWS V14.01,2013-07-03 09:30:00,
2013-07-03 04:31:00,65.8,50.6,30.00,SSE,161,0.0,0.0,58,0.00,,CLR,0.00,VWS V14.01,2013-07-03 09:31:00,
2013-07-03 04:36:00,66.1,50.9,30.00,SSE,161,0.0,0.0,58,0.00,,CLR,0.00,VWS V14.01,2013-07-03 09:36:00,
2013-07-03 04:40:00,65.8,51.5,30.00,SSE,161,0.0,0.0,60,0.00,,CLR,0.00,VWS V14.01,2013-07-03 09:40:00,
2013-07-03 04:41:00,66.1,50.4,30.00,SSE,161,0.0,0.0,57,0.00,,CLR,0.00,VWS V14.01,2013-07-03 09:41:00,
2013-07-03 04:46:00,66.1,50.4,30.00,SSE,161,0.0,0.0,57,0.00,,CLR,0.00,VWS V14.01,2013-07-03 09:46:00,
2013-07-03 04:50:00,66.3,51.1,30.00,SSE,161,0.0,0.0,58,0.00,,CLR,0.00,VWS V14.01,2013-07-03 09:50:00,
2013-07-03 04:51:00,66.3,51.1,30.00,SSE,161,0.0,0.0,58,0.00,,CLR,0.00,VWS V14.01,2013-07-03 09:51:00,
2013-07-03 04:56:00,66.1,50.4,30.00,SSE,161,0.0,0.0,57,0.00,,CLR,0.00,VWS V14.01,2013-07-03 09:56:00,
2013-07-03 05:00:00,66.1,50.0,30.00,SSE,161,0.0,0.0,56,0.00,,CLR,0.00,VWS V14.01,2013-07-03 10:00:00,
2013-07-03 05:02:00,66.1,52.3,30.00,SSE,161,0.0,0.0,61,0.00,,CLR,0.00,VWS V14.01,2013-07-03 10:02:00,
2013-07-03 05:04:00,66.1,51.4,30.00,SSE,161,0.0,0.0,59,0.00,,CLR,0.00,VWS V14.01,2013-07-03 10:04:00,
2013-07-03 05:05:00,66.1,51.8,30.00,SSE,161,0.0,0.0,60,0.00,,CLR,0.00,VWS V14.01,2013-07-03 10:05:00,
2013-07-03 05:10:00,66.1,51.4,30.00,SSE,161,0.0,0.0,59,0.00,,CLR,0.00,VWS V14.01,2013-07-03 10:10:00,
2013-07-03 05:15:00,65.9,52.1,30.00,SSE,161,0.0,0.0,61,0.00,,CLR,0.00,VWS V14.01,2013-07-03 10:15:00,
2013-07-03 05:20:00,65.8,52.0,30.00,SSE,161,0.0,0.0,61,0.00,,CLR,0.00,VWS V14.01,2013-07-03 10:20:00,
2013-07-03 05:25:00,65.5,53.0,30.00,SSE,161,0.0,0.0,64,0.00,,CLR,0.00,VWS V14.01,2013-07-03 10:25:00,
2013-07-03 05:30:00,65.8,52.4,30.00,SSE,161,0.0,0.0,62,0.00,,CLR,0.00,VWS V14.01,2013-07-03 10:30:00,
2013-07-03 05:31:00,65.1,52.6,29.99,SSE,161,0.0,0.0,64,0.00,,CLR,0.00,VWS V14.01,2013-07-03 10:31:00,
2013-07-03 05:32:00,65.1,52.6,29.99,SSE,161,0.0,0.0,64,0.00,,CLR,0.00,VWS V14.01,2013-07-03 10:32:00,
2013-07-03 05:37:00,65.0,53.0,29.99,SSE,161,0.0,0.0,65,0.00,,CLR,0.00,VWS V14.01,2013-07-03 10:37:00,
2013-07-03 05:40:00,65.5,53.0,30.00,SSE,161,0.0,0.0,64,0.00,,CLR,0.00,VWS V14.01,2013-07-03 10:40:00,
2013-07-03 05:42:00,64.8,53.2,29.99,SSE,161,0.0,0.0,66,0.00,,CLR,0.00,VWS V14.01,2013-07-03 10:42:00,
2013-07-03 05:47:00,64.7,53.5,30.00,SSE,161,0.0,0.0,67,0.00,,CLR,0.00,VWS V14.01,2013-07-03 10:47:00,
2013-07-03 05:50:00,64.5,52.9,30.00,SSE,161,0.0,0.0,66,0.00,,CLR,0.00,VWS V14.01,2013-07-03 10:50:00,
2013-07-03 05:55:00,64.5,53.3,30.00,SSE,161,0.0,0.0,67,0.00,,CLR,0.00,VWS V14.01,2013-07-03 10:55:00,
2013-07-03 05:57:00,64.5,52.9,30.00,SSE,161,0.0,0.0,66,0.00,,CLR,0.00,VWS V14.01,2013-07-03 10:57:00,
2013-07-03 06:00:00,64.7,53.5,30.00,SSE,161,0.0,0.0,67,0.00,,CLR,0.00,VWS V14.01,2013-07-03 11:00:00,
2013-07-03 06:02:00,64.2,52.2,30.00,SSE,161,0.0,0.0,65,0.00,,CLR,0.00,VWS V14.01,2013-07-03 11:02:00,
2013-07-03 06:07:00,64.0,52.0,30.00,SSE,161,0.0,0.0,65,0.00,,CLR,0.00,VWS V14.01,2013-07-03 11:07:00,
2013-07-03 06:08:00,64.0,52.0,30.00,SSE,161,0.0,0.0,65,0.00,,CLR,0.00,VWS V14.01,2013-07-03 11:08:00,
2013-07-03 06:09:00,64.0,52.4,30.00,SSE,161,0.0,0.0,66,0.00,,CLR,0.00,VWS V14.01,2013-07-03 11:09:00,
2013-07-03 06:10:00,64.5,52.9,30.00,SSE,161,0.0,0.0,66,0.00,,CLR,0.00,VWS V14.01,2013-07-03 11:10:00,
2013-07-03 06:14:00,63.8,51.8,30.00,SSE,161,0.0,0.0,65,0.00,,CLR,0.00,VWS V14.01,2013-07-03 11:14:00,
2013-07-03 06:19:00,63.8,51.8,30.00,SSE,161,0.0,0.0,65,0.00,,CLR,0.00,VWS V14.01,2013-07-03 11:19:00,
2013-07-03 06:20:00,64.0,52.0,30.00,SSE,161,0.0,0.0,65,0.00,,CLR,0.00,VWS V14.01,2013-07-03 11:20:00,
2013-07-03 06:24:00,63.7,51.7,30.00,SSE,161,0.0,0.0,65,0.00,,CLR,0.00,VWS V14.01,2013-07-03 11:24:00,
2013-07-03 06:25:00,63.7,51.7,30.00,SSE,161,0.0,0.0,65,0.00,,CLR,0.00,VWS V14.01,2013-07-03 11:25:00,
2013-07-03 06:30:00,63.5,52.4,30.00,SSE,161,0.0,0.0,67,0.00,,CLR,0.00,VWS V14.01,2013-07-03 11:30:00,
2013-07-03 06:35:00,63.5,52.4,30.00,SSE,161,0.0,0.0,67,0.00,,CLR,0.00,VWS V14.01,2013-07-03 11:35:00,
2013-07-03 06:40:00,63.4,53.1,30.00,SSE,161,0.0,0.0,69,0.00,,CLR,0.00,VWS V14.01,2013-07-03 11:40:00,
2013-07-03 06:45:00,63.4,53.1,30.00,SSE,161,0.0,0.0,69,0.00,,CLR,0.00,VWS V14.01,2013-07-03 11:45:00,
2013-07-03 06:50:00,63.4,52.3,30.00,SSE,161,0.0,0.0,67,0.00,,CLR,0.00,VWS V14.01,2013-07-03 11:50:00,
2013-07-03 06:56:00,63.2,52.1,30.00,SSE,161,0.0,0.0,67,0.00,,CLR,0.00,VWS V14.01,2013-07-03 11:56:00,
2013-07-03 06:59:00,63.4,52.7,30.00,SSE,161,0.0,0.0,68,0.00,,CLR,0.00,VWS V14.01,2013-07-03 11:59:00,
2013-07-03 07:00:00,63.4,53.1,30.00,SSE,161,0.0,0.0,69,0.00,,CLR,0.00,VWS V14.01,2013-07-03 12:00:00,
2013-07-03 07:02:00,63.4,52.7,30.00,SSE,161,0.0,0.0,68,0.00,,CLR,0.00,VWS V14.01,2013-07-03 12:02:00,
2013-07-03 07:08:00,63.5,52.4,30.00,SSE,161,0.0,0.0,67,0.00,,CLR,0.00,VWS V14.01,2013-07-03 12:08:00,
2013-07-03 07:10:00,63.2,52.1,30.00,SSE,161,0.0,0.0,67,0.00,,CLR,0.00,VWS V14.01,2013-07-03 12:10:00,
2013-07-03 07:13:00,63.7,52.5,30.00,SSE,161,0.0,0.0,67,0.00,,CLR,0.00,VWS V14.01,2013-07-03 12:13:00,
2013-07-03 07:16:00,63.8,53.5,30.00,SSE,165,0.0,0.0,69,0.00,,CLR,0.00,VWS V14.01,2013-07-03 12:16:00,
2013-07-03 07:20:00,63.5,52.4,30.00,SSE,161,0.0,0.0,67,0.00,,CLR,0.00,VWS V14.01,2013-07-03 12:20:00,
2013-07-03 07:21:00,64.0,53.6,30.00,ENE,65,0.0,0.0,69,0.00,,CLR,0.00,VWS V14.01,2013-07-03 12:21:00,
2013-07-03 07:26:00,64.2,53.4,30.00,ENE,65,0.0,0.0,68,0.00,,CLR,0.00,VWS V14.01,2013-07-03 12:26:00,
2013-07-03 07:30:00,63.8,53.5,30.00,SSE,165,0.0,0.0,69,0.00,,CLR,0.00,VWS V14.01,2013-07-03 12:30:00,
2013-07-03 07:31:00,64.5,54.1,30.00,ENE,65,0.0,0.0,69,0.00,,CLR,0.00,VWS V14.01,2013-07-03 12:31:00,
2013-07-03 07:37:00,65.0,55.4,30.00,ENE,65,0.0,0.0,71,0.00,,CLR,0.00,VWS V14.01,2013-07-03 12:37:00,
2013-07-03 07:40:00,64.3,53.5,30.00,ENE,65,0.0,0.0,68,0.00,,CLR,0.00,VWS V14.01,2013-07-03 12:40:00,
2013-07-03 07:42:00,65.1,54.7,30.00,ENE,65,0.0,0.0,69,0.00,,CLR,0.00,VWS V14.01,2013-07-03 12:42:00,
2013-07-03 07:46:00,65.5,55.1,30.01,ENE,65,0.0,0.0,69,0.00,,CLR,0.00,VWS V14.01,2013-07-03 12:46:00,
2013-07-03 07:50:00,65.0,55.4,30.00,ENE,65,0.0,0.0,71,0.00,,CLR,0.00,VWS V14.01,2013-07-03 12:50:00,
2013-07-03 07:52:00,65.8,55.8,30.01,ENE,65,0.0,0.0,70,0.00,,CLR,0.00,VWS V14.01,2013-07-03 12:52:00,
2013-07-03 07:57:00,66.1,55.7,30.01,ENE,65,0.0,0.0,69,0.00,,CLR,0.00,VWS V14.01,2013-07-03 12:57:00,
2013-07-03 08:00:00,65.5,55.1,30.01,ENE,65,0.0,0.0,69,0.00,,CLR,0.00,VWS V14.01,2013-07-03 13:00:00,
2013-07-03 08:03:00,66.4,56.3,30.01,ENE,65,0.0,0.0,70,0.00,,CLR,0.00,VWS V14.01,2013-07-03 13:03:00,
2013-07-03 08:08:00,66.8,56.7,30.01,ENE,65,0.0,0.0,70,0.00,,CLR,0.00,VWS V14.01,2013-07-03 13:08:00,
2013-07-03 08:10:00,66.1,55.7,30.01,ENE,65,0.0,0.0,69,0.00,,CLR,0.00,VWS V14.01,2013-07-03 13:10:00,
2013-07-03 08:13:00,67.1,57.0,30.01,ENE,65,0.0,0.0,70,0.00,,CLR,0.00,VWS V14.01,2013-07-03 13:13:00,
2013-07-03 08:18:00,67.9,57.4,30.02,ENE,65,0.0,0.0,69,0.00,,CLR,0.00,VWS V14.01,2013-07-03 13:18:00,
2013-07-03 08:20:00,66.6,56.5,30.01,ENE,65,0.0,0.0,70,0.00,,CLR,0.00,VWS V14.01,2013-07-03 13:20:00,
2013-07-03 08:23:00,68.8,58.6,30.02,ENE,65,0.0,0.0,70,0.00,,CLR,0.00,VWS V14.01,2013-07-03 13:23:00,
2013-07-03 08:25:00,69.1,58.5,30.02,ENE,65,0.0,0.0,69,0.00,,CLR,0.00,VWS V14.01,2013-07-03 13:25:00,
2013-07-03 08:30:00,69.9,58.5,30.02,ENE,65,0.0,0.0,67,0.00,,CLR,0.00,VWS V14.01,2013-07-03 13:30:00,
2013-07-03 08:35:00,71.0,58.7,30.02,ENE,65,0.0,0.0,65,0.00,,CLR,0.00,VWS V14.01,2013-07-03 13:35:00,
2013-07-03 08:38:00,71.3,58.9,30.02,ENE,65,0.0,0.0,65,0.00,,CLR,0.00,VWS V14.01,2013-07-03 13:38:00,
2013-07-03 08:40:00,69.4,59.2,30.02,ENE,65,0.0,0.0,70,0.00,,CLR,0.00,VWS V14.01,2013-07-03 13:40:00,
2013-07-03 08:43:00,72.2,59.4,30.02,ENE,65,0.0,0.0,64,0.00,,CLR,0.00,VWS V14.01,2013-07-03 13:43:00,
2013-07-03 08:48:00,73.0,59.2,30.03,ENE,65,0.0,0.0,62,0.00,,CLR,0.00,VWS V14.01,2013-07-03 13:48:00,
2013-07-03 08:50:00,71.1,58.8,30.02,ENE,65,0.0,0.0,65,0.00,,CLR,0.00,VWS V14.01,2013-07-03 13:50:00,
2013-07-03 08:54:00,74.2,61.2,30.03,ENE,65,0.0,0.0,64,0.00,,CLR,0.00,VWS V14.01,2013-07-03 13:54:00,
2013-07-03 08:59:00,75.1,59.3,30.03,ENE,65,0.0,0.0,58,0.00,,CLR,0.00,VWS V14.01,2013-07-03 13:59:00,
2013-07-03 09:00:00,72.8,59.0,30.03,ENE,65,0.0,0.0,62,0.00,,CLR,0.00,VWS V14.01,2013-07-03 14:00:00,
2013-07-03 09:04:00,76.0,59.2,30.03,ENE,65,0.0,0.0,56,0.00,,CLR,0.00,VWS V14.01,2013-07-03 14:04:00,
2013-07-03 09:06:00,76.2,59.4,30.03,ENE,65,0.0,0.0,56,0.00,,CLR,0.00,VWS V14.01,2013-07-03 14:06:00,
2013-07-03 09:09:00,76.5,60.2,30.03,ENE,65,0.0,0.0,57,0.00,,CLR,0.00,VWS V14.01,2013-07-03 14:09:00,
2013-07-03 09:10:00,74.8,60.0,30.03,ENE,65,0.0,0.0,60,0.00,,CLR,0.00,VWS V14.01,2013-07-03 14:10:00,
2013-07-03 09:14:00,77.6,58.6,30.03,ENE,65,0.0,0.0,52,0.00,,CLR,0.00,VWS V14.01,2013-07-03 14:14:00,
2013-07-03 09:17:00,78.3,57.6,30.02,ENE,65,0.0,0.0,49,0.00,,CLR,0.00,VWS V14.01,2013-07-03 14:17:00,
2013-07-03 09:20:00,76.3,60.0,30.03,ENE,65,0.0,0.0,57,0.00,,CLR,0.00,VWS V14.01,2013-07-03 14:20:00,
2013-07-03 09:22:00,79.3,56.8,30.02,ENE,65,0.0,0.0,46,0.00,,CLR,0.00,VWS V14.01,2013-07-03 14:22:00,
2013-07-03 09:27:00,80.0,60.8,30.02,ENE,65,0.0,0.0,52,0.00,,CLR,0.00,VWS V14.01,2013-07-03 14:27:00,
2013-07-03 09:30:00,78.3,57.6,30.02,ENE,65,0.0,0.0,49,0.00,,CLR,0.00,VWS V14.01,2013-07-03 14:30:00,
2013-07-03 09:32:00,80.9,58.2,30.03,ENE,65,0.0,0.0,46,0.00,,CLR,0.00,VWS V14.01,2013-07-03 14:32:00,
2013-07-03 09:37:00,81.7,57.0,30.03,ENE,65,0.0,0.0,43,0.00,,CLR,0.00,VWS V14.01,2013-07-03 14:37:00,
2013-07-03 09:40:00,82.3,57.6,30.03,ENE,65,0.0,0.0,43,0.00,,CLR,0.00,VWS V14.01,2013-07-03 14:40:00,
2013-07-03 09:41:00,82.3,57.6,30.03,ENE,65,0.0,0.0,43,0.00,,CLR,0.00,VWS V14.01,2013-07-03 14:41:00,
2013-07-03 09:46:00,83.1,57.0,30.02,ENE,65,0.0,0.0,41,0.00,,CLR,0.00,VWS V14.01,2013-07-03 14:46:00,
2013-07-03 09:50:00,81.7,57.0,30.03,ENE,65,0.0,0.0,43,0.00,,CLR,0.00,VWS V14.01,2013-07-03 14:50:00,
2013-07-03 09:51:00,83.5,58.7,30.02,ENE,65,0.0,0.0,43,0.00,,CLR,0.00,VWS V14.01,2013-07-03 14:51:00,
2013-07-03 09:52:00,83.6,60.0,30.02,ENE,65,0.0,0.0,45,0.00,,CLR,0.00,VWS V14.01,2013-07-03 14:52:00,
2013-07-03 09:57:00,83.8,58.9,30.02,ENE,65,0.0,0.0,43,0.00,,CLR,0.00,VWS V14.01,2013-07-03 14:57:00,
2013-07-03 09:58:00,83.8,60.2,30.02,ENE,65,0.0,0.0,45,0.00,,CLR,0.00,VWS V14.01,2013-07-03 14:58:00,
2013-07-03 10:00:00,83.1,57.0,30.02,ENE,65,0.0,0.0,41,0.00,,CLR,0.00,VWS V14.01,2013-07-03 15:00:00,
2013-07-03 10:03:00,83.6,58.1,30.03,ENE,65,0.0,0.0,42,0.00,,CLR,0.00,VWS V14.01,2013-07-03 15:03:00,
2013-07-03 10:04:00,83.6,59.4,30.03,ENE,65,0.0,0.0,44,0.00,,CLR,0.00,VWS V14.01,2013-07-03 15:04:00,
2013-07-03 10:09:00,83.8,60.2,30.03,ENE,65,0.0,0.0,45,0.00,,CLR,0.00,VWS V14.01,2013-07-03 15:09:00,
2013-07-03 10:10:00,83.8,58.9,30.02,ENE,65,0.0,0.0,43,0.00,,CLR,0.00,VWS V14.01,2013-07-03 15:10:00,
2013-07-03 10:14:00,84.0,59.8,30.03,ENE,65,0.0,0.0,44,0.00,,CLR,0.00,VWS V14.01,2013-07-03 15:14:00,
2013-07-03 10:15:00,84.2,60.0,30.03,ENE,65,0.0,0.0,44,0.00,,CLR,0.00,VWS V14.01,2013-07-03 15:15:00,
2013-07-03 10:20:00,84.8,60.5,30.03,ENE,65,0.0,0.0,44,0.00,,CLR,0.00,VWS V14.01,2013-07-03 15:20:00,
2013-07-03 10:25:00,85.4,59.0,30.03,ENE,65,0.0,0.0,41,0.00,,CLR,0.00,VWS V14.01,2013-07-03 15:25:00,
2013-07-03 10:29:00,86.0,57.5,30.03,ENE,65,0.0,0.0,38,0.00,,CLR,0.00,VWS V14.01,2013-07-03 15:29:00,
2013-07-03 10:30:00,84.4,58.2,30.03,ENE,65,0.0,0.0,41,0.00,,CLR,0.00,VWS V14.01,2013-07-03 15:30:00,
2013-07-03 10:34:00,86.5,54.0,30.03,ENE,65,0.0,0.0,33,0.00,,CLR,0.00,VWS V14.01,2013-07-03 15:34:00,
2013-07-03 10:39:00,87.5,58.8,30.03,ENE,65,0.0,0.0,38,0.00,,CLR,0.00,VWS V14.01,2013-07-03 15:39:00,
2013-07-03 10:40:00,87.5,58.8,30.03,ENE,65,0.0,0.0,38,0.00,,CLR,0.00,VWS V14.01,2013-07-03 15:40:00,
2013-07-03 10:45:00,88.1,60.8,30.03,ENE,65,0.0,0.0,40,0.00,,CLR,0.00,VWS V14.01,2013-07-03 15:45:00,
2013-07-03 10:50:00,88.3,52.0,30.02,ENE,65,0.0,0.0,29,0.00,,CLR,0.00,VWS V14.01,2013-07-03 15:50:00,
2013-07-03 10:52:00,88.8,53.4,30.02,ENE,65,0.0,0.0,30,0.00,,CLR,0.00,VWS V14.01,2013-07-03 15:52:00,
2013-07-03 10:57:00,89.0,54.5,30.02,ENE,65,0.0,0.0,31,0.00,,CLR,0.00,VWS V14.01,2013-07-03 15:57:00,
2013-07-03 11:00:00,88.1,55.4,30.02,ENE,65,0.0,0.0,33,0.00,,CLR,0.00,VWS V14.01,2013-07-03 16:00:00,
2013-07-03 11:03:00,89.0,46.4,30.02,ENE,65,0.0,0.0,23,0.00,,CLR,0.00,VWS V14.01,2013-07-03 16:03:00,
2013-07-03 11:08:00,89.2,52.8,30.02,ENE,65,0.0,0.0,29,0.00,,CLR,0.00,VWS V14.01,2013-07-03 16:08:00,
2013-07-03 11:10:00,89.0,54.5,30.02,ENE,65,0.0,0.0,31,0.00,,CLR,0.00,VWS V14.01,2013-07-03 16:10:00,
2013-07-03 11:13:00,89.8,43.4,30.02,ENE,65,0.0,0.0,20,0.00,,CLR,0.00,VWS V14.01,2013-07-03 16:13:00,
2013-07-03 11:19:00,90.5,48.8,30.01,ENE,65,0.0,0.0,24,0.00,,CLR,0.00,VWS V14.01,2013-07-03 16:19:00,
2013-07-03 11:20:00,89.2,52.8,30.02,ENE,65,0.0,0.0,29,0.00,,CLR,0.00,VWS V14.01,2013-07-03 16:20:00,
2013-07-03 11:24:00,90.2,46.2,30.01,ENE,65,0.0,0.0,22,0.00,,CLR,0.00,VWS V14.01,2013-07-03 16:24:00,
2013-07-03 11:29:00,90.2,46.2,30.01,ENE,65,0.0,0.0,22,0.00,,CLR,0.00,VWS V14.01,2013-07-03 16:29:00,
2013-07-03 11:30:00,90.2,42.4,30.01,ENE,65,0.0,0.0,19,0.00,,CLR,0.00,VWS V14.01,2013-07-03 16:30:00,
2013-07-03 11:34:00,90.2,47.4,30.01,ENE,65,0.0,0.0,23,0.00,,CLR,0.00,VWS V14.01,2013-07-03 16:34:00,
2013-07-03 11:40:00,90.2,46.2,30.01,ENE,65,0.0,0.0,22,0.00,,CLR,0.00,VWS V14.01,2013-07-03 16:40:00,
2013-07-03 11:45:00,90.7,44.2,30.01,ENE,65,0.0,0.0,20,0.00,,CLR,0.00,VWS V14.01,2013-07-03 16:45:00,
2013-07-03 11:50:00,91.1,43.2,30.01,ENE,65,0.0,0.0,19,0.00,,CLR,0.00,VWS V14.01,2013-07-03 16:50:00,
2013-07-03 11:55:00,91.8,40.8,30.01,ENE,65,0.0,0.0,17,0.00,,CLR,0.00,VWS V14.01,2013-07-03 16:55:00,
2013-07-03 12:00:00,92.0,46.5,30.01,ENE,65,0.0,0.0,21,0.00,,CLR,0.00,VWS V14.01,2013-07-03 17:00:00,
2013-07-03 12:06:00,92.2,45.4,30.01,East,79,0.0,0.0,20,0.00,,CLR,0.00,VWS V14.01,2013-07-03 17:06:00,
2013-07-03 12:10:00,91.8,40.8,30.01,ENE,65,0.0,0.0,17,0.00,,CLR,0.00,VWS V14.01,2013-07-03 17:10:00,
2013-07-03 12:11:00,91.8,43.7,30.01,South,184,0.0,0.0,19,0.00,,CLR,0.00,VWS V14.01,2013-07-03 17:11:00,
2013-07-03 12:16:00,91.8,43.7,30.01,South,182,0.0,0.0,19,0.00,,CLR,0.00,VWS V14.01,2013-07-03 17:16:00,
2013-07-03 12:20:00,92.2,37.9,30.01,South,183,0.0,0.0,15,0.00,,CLR,0.00,VWS V14.01,2013-07-03 17:20:00,
2013-07-03 12:21:00,91.6,47.4,30.00,South,182,0.0,0.0,22,0.00,,CLR,0.00,VWS V14.01,2013-07-03 17:21:00,
2013-07-03 12:26:00,91.8,43.7,30.00,South,182,0.0,0.0,19,0.00,,CLR,0.00,VWS V14.01,2013-07-03 17:26:00,
2013-07-03 12:30:00,91.8,43.7,30.00,South,182,0.0,0.0,19,0.00,,CLR,0.00,VWS V14.01,2013-07-03 17:30:00,
2013-07-03 12:31:00,92.4,42.8,30.00,South,184,0.0,0.0,18,0.00,,CLR,0.00,VWS V14.01,2013-07-03 17:31:00,
2013-07-03 12:36:00,92.9,41.7,30.00,West,266,0.0,0.0,17,0.00,,CLR,0.00,VWS V14.01,2013-07-03 17:36:00,
2013-07-03 12:40:00,92.0,50.1,30.00,South,184,0.0,0.0,24,0.00,,CLR,0.00,VWS V14.01,2013-07-03 17:40:00,
2013-07-03 12:41:00,92.9,41.7,30.00,West,271,0.0,0.0,17,0.00,,CLR,0.00,VWS V14.01,2013-07-03 17:41:00,
2013-07-03 12:46:00,93.1,51.0,30.00,West,271,0.0,0.0,24,0.00,,CLR,0.00,VWS V14.01,2013-07-03 17:46:00,
2013-07-03 12:50:00,92.9,43.2,30.00,West,265,0.0,0.0,18,0.00,,CLR,0.00,VWS V14.01,2013-07-03 17:50:00,
2013-07-03 12:51:00,92.9,43.2,30.00,SW,229,0.0,0.0,18,0.00,,CLR,0.00,VWS V14.01,2013-07-03 17:51:00,
2013-07-03 12:56:00,92.9,46.0,30.00,SW,232,0.0,0.0,20,0.00,,CLR,0.00,VWS V14.01,2013-07-03 17:56:00,
2013-07-03 13:00:00,93.3,47.6,30.00,West,271,0.0,0.0,21,0.00,,CLR,0.00,VWS V14.01,2013-07-03 18:00:00,
2013-07-03 13:01:00,93.1,41.9,29.99,SW,232,0.0,0.0,17,0.00,,CLR,0.00,VWS V14.01,2013-07-03 18:01:00,
2013-07-03 13:07:00,93.3,50.0,29.99,SW,232,0.0,0.0,23,0.00,,CLR,0.00,VWS V14.01,2013-07-03 18:07:00,
2013-07-03 13:10:00,92.9,46.0,30.00,SW,232,0.0,0.0,20,0.00,,CLR,0.00,VWS V14.01,2013-07-03 18:10:00,
2013-07-03 13:12:00,93.8,42.4,29.99,North,5,0.0,0.0,17,0.00,,CLR,0.00,VWS V14.01,2013-07-03 18:12:00,
2013-07-03 13:17:00,93.5,49.0,29.98,North,5,0.0,0.0,22,0.00,,CLR,0.00,VWS V14.01,2013-07-03 18:17:00,
2013-07-03 13:20:00,93.3,50.0,29.99,SW,232,0.0,0.0,23,0.00,,CLR,0.00,VWS V14.01,2013-07-03 18:20:00,
2013-07-03 13:22:00,93.8,40.9,29.98,North,5,0.0,0.0,16,0.00,,CLR,0.00,VWS V14.01,2013-07-03 18:22:00,
2013-07-03 13:27:00,94.0,41.0,29.98,NE,53,0.0,0.0,16,0.00,,CLR,0.00,VWS V14.01,2013-07-03 18:27:00,
2013-07-03 13:30:00,93.5,49.0,29.98,North,5,0.0,0.0,22,0.00,,CLR,0.00,VWS V14.01,2013-07-03 18:30:00,
2013-07-03 13:33:00,94.0,45.5,29.98,NE,53,0.0,0.0,19,0.00,,CLR,0.00,VWS V14.01,2013-07-03 18:33:00,
2013-07-03 13:38:00,94.0,45.5,29.98,ENE,66,0.0,0.0,19,0.00,,CLR,0.00,VWS V14.01,2013-07-03 18:38:00,
2013-07-03 13:40:00,94.0,39.4,29.98,NE,53,0.0,0.0,15,0.00,,CLR,0.00,VWS V14.01,2013-07-03 18:40:00,
2013-07-03 13:43:00,93.5,45.1,29.98,NNW,348,0.0,0.0,19,0.00,,CLR,0.00,VWS V14.01,2013-07-03 18:43:00,
2013-07-03 13:48:00,93.5,45.1,29.97,NNW,348,0.0,0.0,19,0.00,,CLR,0.00,VWS V14.01,2013-07-03 18:48:00,
2013-07-03 13:50:00,94.0,42.6,29.98,NE,53,0.0,0.0,17,0.00,,CLR,0.00,VWS V14.01,2013-07-03 18:50:00,
2013-07-03 13:54:00,94.0,45.5,29.97,NNW,348,0.0,0.0,19,0.00,,CLR,0.00,VWS V14.01,2013-07-03 18:54:00,
2013-07-03 13:59:00,94.2,48.3,29.97,SSE,148,0.0,0.0,21,0.00,,CLR,0.00,VWS V14.01,2013-07-03 18:59:00,
2013-07-03 14:00:00,93.5,42.2,29.97,NNW,348,0.0,0.0,17,0.00,,CLR,0.00,VWS V14.01,2013-07-03 19:00:00,
2013-07-03 14:04:00,94.2,39.5,29.97,SSE,148,0.0,0.0,15,0.00,,CLR,0.00,VWS V14.01,2013-07-03 19:04:00,
2013-07-03 14:10:00,94.4,42.9,29.97,SSE,148,0.0,0.0,17,0.00,,CLR,0.00,VWS V14.01,2013-07-03 19:10:00,
2013-07-03 14:15:00,94.4,45.8,29.97,SSE,148,0.0,0.0,19,0.00,,CLR,0.00,VWS V14.01,2013-07-03 19:15:00,
2013-07-03 14:20:00,94.6,44.6,29.96,East,95,0.0,0.0,18,0.00,,CLR,0.00,VWS V14.01,2013-07-03 19:20:00,
2013-07-03 14:25:00,94.6,46.0,29.96,East,95,0.0,0.0,19,0.00,,CLR,0.00,VWS V14.01,2013-07-03 19:25:00,
2013-07-03 14:30:00,94.4,44.4,29.96,East,95,0.0,0.0,18,0.00,,CLR,0.00,VWS V14.01,2013-07-03 19:30:00,
2013-07-03 14:35:00,94.4,44.4,29.96,East,95,0.0,0.0,18,0.00,,CLR,0.00,VWS V14.01,2013-07-03 19:35:00,
2013-07-03 14:40:00,93.8,48.0,29.96,East,95,0.0,0.0,21,0.00,,CLR,0.00,VWS V14.01,2013-07-03 19:40:00,
2013-07-03 14:45:00,93.5,45.1,29.96,East,95,0.0,0.0,19,0.00,,CLR,0.00,VWS V14.01,2013-07-03 19:45:00,
2013-07-03 14:50:00,93.5,43.7,29.95,East,94,0.0,0.0,18,0.00,,CLR,0.00,VWS V14.01,2013-07-03 19:50:00,
2013-07-03 14:55:00,93.1,46.1,29.95,NNE,19,0.0,0.0,20,0.00,,CLR,0.00,VWS V14.01,2013-07-03 19:55:00,
2013-07-03 15:00:00,93.3,42.0,29.95,NNE,19,0.0,0.0,17,0.00,,CLR,0.00,VWS V14.01,2013-07-03 20:00:00,
2013-07-03 15:06:00,93.1,46.1,29.95,NNE,19,0.0,0.0,20,0.00,,CLR,0.00,VWS V14.01,2013-07-03 20:06:00,
2013-07-03 15:10:00,93.1,43.4,29.95,NNE,19,0.0,0.0,18,0.00,,CLR,0.00,VWS V14.01,2013-07-03 20:10:00,
2013-07-03 15:11:00,93.1,44.8,29.95,NNE,19,0.0,0.0,19,0.00,,CLR,0.00,VWS V14.01,2013-07-03 20:11:00,
2013-07-03 15:16:00,92.9,44.6,29.94,NNE,19,0.0,0.0,19,0.00,,CLR,0.00,VWS V14.01,2013-07-03 20:16:00,
2013-07-03 15:20:00,93.1,44.8,29.95,NNE,19,0.0,0.0,19,0.00,,CLR,0.00,VWS V14.01,2013-07-03 20:20:00,
2013-07-03 15:21:00,92.7,44.5,29.94,NNE,19,0.0,0.0,19,0.00,,CLR,0.00,VWS V14.01,2013-07-03 20:21:00,
2013-07-03 15:27:00,92.7,44.5,29.94,NNE,19,0.0,0.0,19,0.00,,CLR,0.00,VWS V14.01,2013-07-03 20:27:00,
2013-07-03 15:30:00,92.9,44.6,29.94,NNE,19,0.0,0.0,19,0.00,,CLR,0.00,VWS V14.01,2013-07-03 20:30:00,
2013-07-03 15:32:00,92.9,46.0,29.94,NNE,19,0.0,0.0,20,0.00,,CLR,0.00,VWS V14.01,2013-07-03 20:32:00,
2013-07-03 15:37:00,92.9,43.2,29.94,NNE,19,0.0,0.0,18,0.00,,CLR,0.00,VWS V14.01,2013-07-03 20:37:00,
2013-07-03 15:40:00,92.7,44.5,29.94,NNE,19,0.0,0.0,19,0.00,,CLR,0.00,VWS V14.01,2013-07-03 20:40:00,
2013-07-03 15:42:00,92.7,41.5,29.94,ESE,120,0.0,0.0,17,0.00,,CLR,0.00,VWS V14.01,2013-07-03 20:42:00,
2013-07-03 15:47:00,92.7,40.0,29.93,ESE,120,0.0,0.0,16,0.00,,CLR,0.00,VWS V14.01,2013-07-03 20:47:00,
2013-07-03 15:50:00,92.9,43.2,29.94,NNE,19,0.0,0.0,18,0.00,,CLR,0.00,VWS V14.01,2013-07-03 20:50:00,
2013-07-03 15:52:00,92.4,44.2,29.93,ESE,120,0.0,0.0,19,0.00,,CLR,0.00,VWS V14.01,2013-07-03 20:52:00,
2013-07-03 15:57:00,92.0,46.5,29.93,ESE,120,0.0,0.0,21,0.00,,CLR,0.00,VWS V14.01,2013-07-03 20:57:00,
2013-07-03 16:00:00,92.7,44.5,29.93,ESE,120,0.0,0.0,19,0.00,,CLR,0.00,VWS V14.01,2013-07-03 21:00:00,
2013-07-03 16:02:00,91.8,46.3,29.93,ESE,120,0.0,0.0,21,0.00,,CLR,0.00,VWS V14.01,2013-07-03 21:02:00,
2013-07-03 16:07:00,91.6,44.9,29.93,ESE,120,0.0,0.0,20,0.00,,CLR,0.00,VWS V14.01,2013-07-03 21:07:00,
2013-07-03 16:10:00,92.0,46.5,29.93,ESE,120,0.0,0.0,21,0.00,,CLR,0.00,VWS V14.01,2013-07-03 21:10:00,
2013-07-03 16:13:00,91.3,40.4,29.93,SSE,165,0.0,0.0,17,0.00,,CLR,0.00,VWS V14.01,2013-07-03 21:13:00,
2013-07-03 16:18:00,91.3,45.9,29.93,SSE,164,0.0,0.0,21,0.00,,CLR,0.00,VWS V14.01,2013-07-03 21:18:00,
2013-07-03 16:20:00,91.6,44.9,29.93,ESE,120,0.0,0.0,20,0.00,,CLR,0.00,VWS V14.01,2013-07-03 21:20:00,
2013-07-03 16:24:00,91.1,41.7,29.93,SSW,196,0.0,0.0,18,0.00,,CLR,0.00,VWS V14.01,2013-07-03 21:24:00,
2013-07-03 16:29:00,91.1,48.2,29.93,SSW,196,0.0,0.0,23,0.00,,CLR,0.00,VWS V14.01,2013-07-03 21:29:00,
2013-07-03 16:30:00,91.3,43.3,29.93,SSE,164,0.0,0.0,19,0.00,,CLR,0.00,VWS V14.01,2013-07-03 21:30:00,
2013-07-03 16:34:00,90.9,40.1,29.92,SSW,194,0.0,0.0,17,0.00,,CLR,0.00,VWS V14.01,2013-07-03 21:34:00,
2013-07-03 16:39:00,90.9,44.3,29.92,SSW,194,0.0,0.0,20,0.00,,CLR,0.00,VWS V14.01,2013-07-03 21:39:00,
2013-07-03 16:40:00,91.1,40.3,29.93,SSW,196,0.0,0.0,17,0.00,,CLR,0.00,VWS V14.01,2013-07-03 21:40:00,
2013-07-03 16:45:00,90.9,48.0,29.92,SSW,194,0.0,0.0,23,0.00,,CLR,0.00,VWS V14.01,2013-07-03 21:45:00,
2013-07-03 16:50:00,91.1,44.5,29.91,SSW,194,0.0,0.0,20,0.00,,CLR,0.00,VWS V14.01,2013-07-03 21:50:00,
2013-07-03 16:55:00,91.1,43.2,29.91,South,174,0.0,0.0,19,0.00,,CLR,0.00,VWS V14.01,2013-07-03 21:55:00,
2013-07-03 17:00:00,91.1,44.5,29.91,South,174,0.0,0.0,20,0.00,,CLR,0.00,VWS V14.01,2013-07-03 22:00:00,
2013-07-03 17:06:00,91.1,45.8,29.91,South,175,0.0,0.0,21,0.00,,CLR,0.00,VWS V14.01,2013-07-03 22:06:00,
2013-07-03 17:10:00,91.1,44.5,29.91,South,174,0.0,0.0,20,0.00,,CLR,0.00,VWS V14.01,2013-07-03 22:10:00,
2013-07-03 17:11:00,90.9,41.6,29.91,South,175,0.0,0.0,18,0.00,,CLR,0.00,VWS V14.01,2013-07-03 22:11:00,
2013-07-03 17:16:00,90.9,41.6,29.90,South,175,0.0,0.0,18,0.00,,CLR,0.00,VWS V14.01,2013-07-03 22:16:00,
2013-07-03 17:20:00,91.1,44.5,29.91,South,175,0.0,0.0,20,0.00,,CLR,0.00,VWS V14.01,2013-07-03 22:20:00,
2013-07-03 17:21:00,90.9,45.6,29.90,South,175,0.0,0.0,21,0.00,,CLR,0.00,VWS V14.01,2013-07-03 22:21:00,
2013-07-03 17:27:00,90.7,44.2,29.90,South,175,0.0,0.0,20,0.00,,CLR,0.00,VWS V14.01,2013-07-03 22:27:00,
2013-07-03 17:30:00,91.1,43.2,29.90,South,175,0.0,0.0,19,0.00,,CLR,0.00,VWS V14.01,2013-07-03 22:30:00,
2013-07-03 17:32:00,90.2,39.5,29.90,South,175,0.0,0.0,17,0.00,,CLR,0.00,VWS V14.01,2013-07-03 22:32:00,
2013-07-03 17:37:00,90.2,45.0,29.90,South,175,0.0,0.0,21,0.00,,CLR,0.00,VWS V14.01,2013-07-03 22:37:00,
2013-07-03 17:40:00,90.7,44.2,29.90,South,175,0.0,0.0,20,0.00,,CLR,0.00,VWS V14.01,2013-07-03 22:40:00,
2013-07-03 17:42:00,90.2,48.6,29.90,South,175,0.0,0.0,24,0.00,,CLR,0.00,VWS V14.01,2013-07-03 22:42:00,
2013-07-03 17:47:00,90.0,47.3,29.89,South,175,0.0,0.0,23,0.00,,CLR,0.00,VWS V14.01,2013-07-03 22:47:00,
2013-07-03 17:50:00,90.2,45.0,29.90,South,175,0.0,0.0,21,0.00,,CLR,0.00,VWS V14.01,2013-07-03 22:50:00,
2013-07-03 17:52:00,89.6,48.1,29.89,South,175,0.0,0.0,24,0.00,,CLR,0.00,VWS V14.01,2013-07-03 22:52:00,
2013-07-03 17:58:00,89.4,46.8,29.89,South,175,0.0,0.0,23,0.00,,CLR,0.00,VWS V14.01,2013-07-03 22:58:00,
2013-07-03 18:00:00,90.0,47.3,29.89,South,175,0.0,0.0,23,0.00,,CLR,0.00,VWS V14.01,2013-07-03 23:00:00,
2013-07-03 18:03:00,89.4,46.8,29.89,South,175,0.0,0.0,23,0.00,,CLR,0.00,VWS V14.01,2013-07-03 23:03:00,
2013-07-03 18:08:00,89.2,48.8,29.89,South,175,0.0,0.0,25,0.00,,CLR,0.00,VWS V14.01,2013-07-03 23:08:00,
2013-07-03 18:10:00,89.6,44.5,29.89,South,175,0.0,0.0,21,0.00,,CLR,0.00,VWS V14.01,2013-07-03 23:10:00,
2013-07-03 18:13:00,88.8,50.5,29.89,South,175,0.0,0.0,27,0.00,,CLR,0.00,VWS V14.01,2013-07-03 23:13:00,
2013-07-03 18:19:00,88.5,47.1,29.89,South,175,0.0,0.0,24,0.00,,CLR,0.00,VWS V14.01,2013-07-03 23:19:00,
2013-07-03 18:20:00,89.2,48.8,29.89,South,175,0.0,0.0,25,0.00,,CLR,0.00,VWS V14.01,2013-07-03 23:20:00,
2013-07-03 18:24:00,88.3,47.0,29.89,South,175,0.0,0.0,24,0.00,,CLR,0.00,VWS V14.01,2013-07-03 23:24:00,
2013-07-03 18:29:00,87.9,51.7,29.89,South,175,0.0,0.0,29,0.00,,CLR,0.00,VWS V14.01,2013-07-03 23:29:00,
2013-07-03 18:30:00,88.5,43.6,29.89,South,175,0.0,0.0,21,0.00,,CLR,0.00,VWS V14.01,2013-07-03 23:30:00,
2013-07-03 18:35:00,87.5,48.4,29.88,South,175,0.0,0.0,26,0.00,,CLR,0.00,VWS V14.01,2013-07-03 23:35:00,
2013-07-03 18:40:00,87.3,48.3,29.88,South,175,0.0,0.0,26,0.00,,CLR,0.00,VWS V14.01,2013-07-03 23:40:00,
2013-07-03 18:45:00,87.1,51.9,29.88,South,175,0.0,0.0,30,0.00,,CLR,0.00,VWS V14.01,2013-07-03 23:45:00,
2013-07-03 18:50:00,86.9,52.7,29.89,South,175,0.0,0.0,31,0.00,,CLR,0.00,VWS V14.01,2013-07-03 23:50:00,
2013-07-03 18:55:00,86.5,53.2,29.89,South,175,0.0,0.0,32,0.00,,CLR,0.00,VWS V14.01,2013-07-03 23:55:00,
2013-07-03 19:00:00,86.0,53.6,29.89,South,175,0.0,0.0,33,0.00,,CLR,0.00,VWS V14.01,2013-07-04 00:00:00,
2013-07-03 19:05:00,85.8,52.6,29.89,South,175,0.0,0.0,32,0.00,,CLR,0.00,VWS V14.01,2013-07-04 00:05:00,
2013-07-03 19:10:00,85.4,51.4,29.89,South,175,0.0,0.0,31,0.00,,CLR,0.00,VWS V14.01,2013-07-04 00:10:00,
2013-07-03 19:15:00,85.0,51.9,29.89,South,175,0.0,0.0,32,0.00,,CLR,0.00,VWS V14.01,2013-07-04 00:15:00,
2013-07-03 19:20:00,85.6,52.4,29.89,South,175,0.0,0.0,32,0.00,,CLR,0.00,VWS V14.01,2013-07-04 00:20:00,
2013-07-03 19:21:00,84.6,51.5,29.89,South,175,0.0,0.0,32,0.00,,CLR,0.00,VWS V14.01,2013-07-04 00:21:00,
2013-07-03 19:26:00,84.4,49.6,29.89,South,175,0.0,0.0,30,0.00,,CLR,0.00,VWS V14.01,2013-07-04 00:26:00,
2013-07-03 19:30:00,85.0,52.7,29.89,South,175,0.0,0.0,33,0.00,,CLR,0.00,VWS V14.01,2013-07-04 00:30:00,
2013-07-03 19:31:00,84.0,48.4,29.89,South,175,0.0,0.0,29,0.00,,CLR,0.00,VWS V14.01,2013-07-04 00:31:00,
2013-07-03 19:36:00,83.6,48.0,29.89,South,175,0.0,0.0,29,0.00,,CLR,0.00,VWS V14.01,2013-07-04 00:36:00,
2013-07-03 19:40:00,84.2,48.5,29.89,South,175,0.0,0.0,29,0.00,,CLR,0.00,VWS V14.01,2013-07-04 00:40:00,
2013-07-03 19:41:00,83.3,47.8,29.89,South,175,0.0,0.0,29,0.00,,CLR,0.00,VWS V14.01,2013-07-04 00:41:00,
2013-07-03 19:46:00,83.1,50.2,29.89,South,175,0.0,0.0,32,0.00,,CLR,0.00,VWS V14.01,2013-07-04 00:46:00,
2013-07-03 19:50:00,83.6,47.1,29.89,South,175,0.0,0.0,28,0.00,,CLR,0.00,VWS V14.01,2013-07-04 00:50:00,
2013-07-03 19:51:00,82.7,49.0,29.89,South,175,0.0,0.0,31,0.00,,CLR,0.00,VWS V14.01,2013-07-04 00:51:00,
2013-07-03 19:56:00,82.5,49.7,29.89,South,175,0.0,0.0,32,0.00,,CLR,0.00,VWS V14.01,2013-07-04 00:56:00,
2013-07-03 20:00:00,83.1,49.4,29.89,South,175,0.0,0.0,31,0.00,,CLR,0.00,VWS V14.01,2013-07-04 01:00:00,
2013-07-03 20:01:00,82.1,51.0,29.89,South,175,0.0,0.0,34,0.00,,CLR,0.00,VWS V14.01,2013-07-04 01:01:00,
2013-07-03 20:06:00,81.7,48.2,29.89,South,175,0.0,0.0,31,0.00,,CLR,0.00,VWS V14.01,2013-07-04 01:06:00,
2013-07-03 20:10:00,82.3,49.5,29.89,South,175,0.0,0.0,32,0.00,,CLR,0.00,VWS V14.01,2013-07-04 01:10:00,
2013-07-03 20:11:00,81.3,49.5,29.89,South,175,0.0,0.0,33,0.00,,CLR,0.00,VWS V14.01,2013-07-04 01:11:00,
2013-07-03 20:16:00,80.9,49.1,29.89,South,175,0.0,0.0,33,0.00,,CLR,0.00,VWS V14.01,2013-07-04 01:16:00,
2013-07-03 20:20:00,81.7,48.2,29.89,South,175,0.0,0.0,31,0.00,,CLR,0.00,VWS V14.01,2013-07-04 01:20:00,
2013-07-03 20:21:00,80.6,51.2,29.89,South,175,0.0,0.0,36,0.00,,CLR,0.00,VWS V14.01,2013-07-04 01:21:00,
2013-07-03 20:26:00,80.2,53.7,29.89,South,175,0.0,0.0,40,0.00,,CLR,0.00,VWS V14.01,2013-07-04 01:26:00,
2013-07-03 20:30:00,80.9,49.1,29.89,South,175,0.0,0.0,33,0.00,,CLR,0.00,VWS V14.01,2013-07-04 01:30:00,
2013-07-03 20:32:00,79.8,52.7,29.89,South,175,0.0,0.0,39,0.00,,CLR,0.00,VWS V14.01,2013-07-04 01:32:00,
2013-07-03 20:37:00,79.4,52.3,29.89,South,175,0.0,0.0,39,0.00,,CLR,0.00,VWS V14.01,2013-07-04 01:37:00,
2013-07-03 20:40:00,80.2,53.7,29.89,South,175,0.0,0.0,40,0.00,,CLR,0.00,VWS V14.01,2013-07-04 01:40:00,
2013-07-03 20:42:00,79.1,54.1,29.89,South,175,0.0,0.0,42,0.00,,CLR,0.00,VWS V14.01,2013-07-04 01:42:00,
2013-07-03 20:47:00,78.5,56.6,29.89,South,175,0.0,0.0,47,0.00,,CLR,0.00,VWS V14.01,2013-07-04 01:47:00,
2013-07-03 20:50:00,79.4,52.3,29.89,South,175,0.0,0.0,39,0.00,,CLR,0.00,VWS V14.01,2013-07-04 01:50:00,
2013-07-03 20:52:00,78.1,56.2,29.89,South,175,0.0,0.0,47,0.00,,CLR,0.00,VWS V14.01,2013-07-04 01:52:00,
2013-07-03 20:57:00,77.6,55.2,29.89,South,175,0.0,0.0,46,0.00,,CLR,0.00,VWS V14.01,2013-07-04 01:57:00,
2013-07-03 21:00:00,78.5,56.6,29.89,South,175,0.0,0.0,47,0.00,,CLR,0.00,VWS V14.01,2013-07-04 02:00:00,
2013-07-03 21:02:00,77.2,54.8,29.89,South,175,0.0,0.0,46,0.00,,CLR,0.00,VWS V14.01,2013-07-04 02:02:00,
2013-07-03 21:07:00,76.9,55.7,29.89,South,175,0.0,0.0,48,0.00,,CLR,0.00,VWS V14.01,2013-07-04 02:07:00,
2013-07-03 21:10:00,77.6,55.2,29.89,South,175,0.0,0.0,46,0.00,,CLR,0.00,VWS V14.01,2013-07-04 02:10:00,
2013-07-03 21:12:00,76.5,55.4,29.89,South,175,0.0,0.0,48,0.00,,CLR,0.00,VWS V14.01,2013-07-04 02:12:00,
2013-07-03 21:17:00,76.2,56.2,29.90,South,175,0.0,0.0,50,0.00,,CLR,0.00,VWS V14.01,2013-07-04 02:17:00,
2013-07-03 21:20:00,76.9,55.7,29.89,South,175,0.0,0.0,48,0.00,,CLR,0.00,VWS V14.01,2013-07-04 02:20:00,
2013-07-03 21:23:00,76.0,53.8,29.90,South,175,0.0,0.0,46,0.00,,CLR,0.00,VWS V14.01,2013-07-04 02:23:00,
2013-07-03 21:28:00,75.8,54.7,29.90,South,175,0.0,0.0,48,0.00,,CLR,0.00,VWS V14.01,2013-07-04 02:28:00,
2013-07-03 21:30:00,76.2,56.2,29.90,South,175,0.0,0.0,50,0.00,,CLR,0.00,VWS V14.01,2013-07-04 02:30:00,
2013-07-03 21:33:00,75.8,55.3,29.91,South,175,0.0,0.0,49,0.00,,CLR,0.00,VWS V14.01,2013-07-04 02:33:00,
2013-07-03 21:38:00,75.6,55.1,29.91,South,175,0.0,0.0,49,0.00,,CLR,0.00,VWS V14.01,2013-07-04 02:38:00,
2013-07-03 21:40:00,75.8,52.4,29.90,South,175,0.0,0.0,44,0.00,,CLR,0.00,VWS V14.01,2013-07-04 02:40:00,
2013-07-03 21:44:00,75.6,56.8,29.91,South,175,0.0,0.0,52,0.00,,CLR,0.00,VWS V14.01,2013-07-04 02:44:00,
2013-07-03 21:49:00,75.5,58.2,29.92,South,175,0.0,0.0,55,0.00,,CLR,0.00,VWS V14.01,2013-07-04 02:49:00,
2013-07-03 21:50:00,75.6,55.7,29.91,South,175,0.0,0.0,50,0.00,,CLR,0.00,VWS V14.01,2013-07-04 02:50:00,
2013-07-03 21:54:00,75.5,57.7,29.92,South,175,0.0,0.0,54,0.00,,CLR,0.00,VWS V14.01,2013-07-04 02:54:00,
2013-07-03 21:59:00,75.5,58.2,29.92,South,175,0.0,0.0,55,0.00,,CLR,0.00,VWS V14.01,2013-07-04 02:59:00,
2013-07-03 22:00:00,75.5,57.2,29.92,South,175,0.0,0.0,53,0.00,,CLR,0.00,VWS V14.01,2013-07-04 03:00:00,
2013-07-03 22:04:00,75.6,59.3,29.92,South,175,0.0,0.0,57,0.00,,CLR,0.00,VWS V14.01,2013-07-04 03:04:00,
2013-07-03 22:09:00,75.6,59.8,29.92,South,175,0.0,0.0,58,0.00,,CLR,0.00,VWS V14.01,2013-07-04 03:09:00,
2013-07-03 22:10:00,75.5,58.2,29.92,South,175,0.0,0.0,55,0.00,,CLR,0.00,VWS V14.01,2013-07-04 03:10:00,
2013-07-03 22:14:00,75.5,60.2,29.92,South,175,0.0,0.0,59,0.00,,CLR,0.00,VWS V14.01,2013-07-04 03:14:00,
2013-07-03 22:20:00,75.5,60.7,29.92,South,175,0.0,0.0,60,0.00,,CLR,0.00,VWS V14.01,2013-07-04 03:20:00,
2013-07-03 22:25:00,75.3,61.4,29.92,South,175,0.0,0.0,62,0.00,,CLR,0.00,VWS V14.01,2013-07-04 03:25:00,
2013-07-03 22:30:00,75.5,62.0,29.92,South,175,0.0,0.0,63,0.00,,CLR,0.00,VWS V14.01,2013-07-04 03:30:00,
2013-07-03 22:35:00,75.6,63.0,29.93,South,175,0.0,0.0,65,0.00,,CLR,0.00,VWS V14.01,2013-07-04 03:35:00,
2013-07-03 22:40:00,75.6,62.6,29.93,South,175,0.0,0.0,64,0.00,,CLR,0.00,VWS V14.01,2013-07-04 03:40:00,
2013-07-03 22:45:00,75.6,62.1,29.93,South,175,0.0,0.0,63,0.00,,CLR,0.00,VWS V14.01,2013-07-04 03:45:00,
2013-07-03 22:50:00,75.5,62.0,29.93,South,175,0.0,0.0,63,0.00,,CLR,0.00,VWS V14.01,2013-07-04 03:50:00,
2013-07-03 22:55:00,75.3,62.3,29.93,South,175,0.0,0.0,64,0.00,,CLR,0.00,VWS V14.01,2013-07-04 03:55:00,
2013-07-03 23:00:00,75.3,62.7,29.93,South,175,0.0,0.0,65,0.00,,CLR,0.00,VWS V14.01,2013-07-04 04:00:00,
2013-07-03 23:01:00,75.3,62.7,29.93,South,175,0.0,0.0,65,0.00,,CLR,0.00,VWS V14.01,2013-07-04 04:01:00,
2013-07-03 23:06:00,75.3,62.7,29.94,South,175,0.0,0.0,65,0.00,,CLR,0.00,VWS V14.01,2013-07-04 04:06:00,
2013-07-03 23:10:00,75.3,62.7,29.93,South,175,0.0,0.0,65,0.00,,CLR,0.00,VWS V14.01,2013-07-04 04:10:00,
2013-07-03 23:11:00,75.3,62.7,29.94,South,175,0.0,0.0,65,0.00,,CLR,0.00,VWS V14.01,2013-07-04 04:11:00,
2013-07-03 23:16:00,75.3,62.7,29.94,South,175,0.0,0.0,65,0.00,,CLR,0.00,VWS V14.01,2013-07-04 04:16:00,
2013-07-03 23:20:00,75.3,62.7,29.94,South,175,0.0,0.0,65,0.00,,CLR,0.00,VWS V14.01,2013-07-04 04:20:00,
2013-07-03 23:21:00,75.1,62.1,29.94,South,175,0.0,0.0,64,0.00,,CLR,0.00,VWS V14.01,2013-07-04 04:21:00,
2013-07-03 23:26:00,74.9,61.9,29.94,South,175,0.0,0.0,64,0.00,,CLR,0.00,VWS V14.01,2013-07-04 04:26:00,
2013-07-03 23:30:00,75.3,62.3,29.94,South,175,0.0,0.0,64,0.00,,CLR,0.00,VWS V14.01,2013-07-04 04:30:00,
2013-07-03 23:31:00,74.8,62.3,29.94,South,175,0.0,0.0,65,0.00,,CLR,0.00,VWS V14.01,2013-07-04 04:31:00,
2013-07-03 23:36:00,74.4,61.9,29.94,South,175,0.0,0.0,65,0.00,,CLR,0.00,VWS V14.01,2013-07-04 04:36:00,
2013-07-03 23:40:00,74.9,61.9,29.94,South,175,0.0,0.0,64,0.00,,CLR,0.00,VWS V14.01,2013-07-04 04:40:00,
2013-07-03 23:41:00,74.2,62.1,29.94,South,175,0.0,0.0,66,0.00,,CLR,0.00,VWS V14.01,2013-07-04 04:41:00,
2013-07-03 23:46:00,73.9,61.8,29.94,South,175,0.0,0.0,66,0.00,,CLR,0.00,VWS V14.01,2013-07-04 04:46:00,
2013-07-03 23:50:00,74.4,62.3,29.94,South,175,0.0,0.0,66,0.00,,CLR,0.00,VWS V14.01,2013-07-04 04:50:00,
2013-07-03 23:51:00,73.7,61.7,29.94,South,175,0.0,0.0,66,0.00,,CLR,0.00,VWS V14.01,2013-07-04 04:51:00,
2013-07-03 23:56:00,73.5,61.5,29.94,South,175,0.0,0.0,66,0.00,,CLR,0.00,VWS V14.01,2013-07-04 04:56:00,